Flag for Spain Weather past 2 weeks in Las Palmas, Canary Islands, Spain

77 °F

Passing clouds.

Feels Like: 78 °F
Forecast: 75 / 78 °F
Wind: 1 mph from North

Location: Las Palmas De Gran Canaria / Gando

Current Time: Oct 10, 2015 at 9:38:52 PM

Latest Report: Oct 10, 2015 at 9:00 PM

Visibility: N/A

Pressure: 29.92 "Hg

Humidity: 89%

Dew point: 73 °F

Location of Las PalmasLocation

Historic Weather in Las Palmas — Graph


Las Palmas temperature yesterday

Maximum temperature yesterday: 81 °F (at 11:30 AM)
Minimum temperature yesterday: 70 °F (at 8:00 AM)
Average temperature yesterday: 75 °F

Past Weeks' High & Low Weather Summary

High93 °F (Oct 5, 12:30 PM)94% (Oct 3, 8:00 AM)30.15 "Hg (Oct 3, 8:00 AM)
Low68 °F (Sep 29, 5:30 AM)33% (Oct 4, 2:30 PM)29.92 "Hg (Sep 29, 4:00 AM)
Average77 °F67%30.04 "Hg
* Reported Sep 25 8:00 PM — Oct 10 8:30 PM, Las Palmas, Weather by CustomWeather, © 2015

Note: Actual official high and low records may vary slightly from our data, if they occured in-between our weather recording intervals... More about our weather records


Las Palmas weather history for previous 24 hours

Time TempWeatherWind HumidityBarometerVisibility
8:30 PM
Sat, Oct 10
77 °FPartly sunny.3 mph89%29.92 "HgN/A
8:00 PM77 °FPartly sunny.2 mph89%29.92 "HgN/A
7:30 PM79 °FPartly sunny.3 mph84%29.92 "HgN/A
7:00 PM79 °FPartly sunny.3 mph84%29.92 "HgN/A
6:30 PM79 °FPartly sunny.6 mph84%29.92 "HgN/A
6:00 PM79 °FPartly sunny.5 mph84%29.92 "HgN/A
5:30 PM79 °FPartly sunny.8 mph84%29.92 "HgN/A
5:00 PM79 °FPartly sunny.8 mph79%29.92 "HgN/A
4:30 PM81 °FScattered clouds.10 mph79%29.92 "HgN/A
4:00 PM81 °FPassing clouds.10 mph74%29.92 "HgN/A
3:30 PM82 °FPassing clouds.12 mph66%29.92 "HgN/A
3:00 PM84 °FPassing clouds.12 mph62%29.92 "HgN/A
2:30 PM84 °FPassing clouds.10 mph58%29.92 "HgN/A
2:00 PM84 °FPassing clouds.9 mph58%29.92 "HgN/A
1:30 PM84 °FPassing clouds.10 mph58%29.95 "HgN/A
1:00 PM84 °FPassing clouds.9 mph51%29.95 "HgN/A
12:30 PM82 °FPassing clouds.8 mph62%29.95 "HgN/A
12:00 PM81 °FPassing clouds.7 mph62%29.98 "HgN/A
11:30 AM81 °FPassing clouds.3 mph54%29.98 "HgN/A
11:00 AM81 °FPassing clouds.2 mph54%29.95 "HgN/A
10:30 AM79 °FPassing clouds.3 mph65%29.95 "HgN/A
10:00 AM79 °FPassing clouds.2 mph61%29.95 "HgN/A
9:30 AM77 °FPassing clouds.2 mph61%29.95 "HgN/A
9:00 AM75 °FPassing clouds.2 mph61%29.95 "HgN/A
8:30 AM73 °FPassing clouds.No wind65%29.95 "HgN/A
8:00 AM72 °FPassing clouds.No wind69%29.92 "HgN/A
7:30 AM72 °FPassing clouds.No wind73%29.92 "HgN/A
7:00 AM72 °FPassing clouds.1 mph73%29.92 "HgN/A
6:30 AM72 °FPassing clouds.1 mph78%29.92 "HgN/A
6:00 AM73 °FPassing clouds.3 mph74%29.92 "HgN/A
5:30 AM73 °FPassing clouds.1 mph74%29.92 "HgN/A
5:00 AM73 °FPartly cloudy.2 mph74%29.95 "HgN/A
4:30 AM73 °FPartly cloudy.2 mph74%29.95 "HgN/A
4:00 AM73 °FPassing clouds.2 mph74%29.95 "HgN/A
3:30 AM73 °FPassing clouds.2 mph74%29.95 "HgN/A
3:00 AM72 °FPassing clouds.2 mph78%29.95 "HgN/A
2:30 AM73 °FPassing clouds.2 mph74%29.98 "HgN/A
2:00 AM73 °FClear.2 mph74%29.98 "Hg10 mi
1:30 AM73 °FClear.No wind74%29.98 "Hg10 mi
1:00 AM73 °FClear.2 mph74%29.98 "Hg10 mi
12:30 AM73 °FClear.2 mph74%30.01 "Hg10 mi
12:00 AM73 °FClear.1 mph74%30.01 "Hg10 mi
11:30 PM
Fri, Oct 9
75 °FPassing clouds.No wind69%30.01 "HgN/A
11:00 PM75 °FPassing clouds.1 mph69%30.01 "HgN/A
10:00 PM75 °FPassing clouds.No wind69%30.01 "HgN/A
9:30 PM75 °FPassing clouds.1 mph69%29.98 "HgN/A
9:00 PM75 °FPassing clouds.1 mph69%29.98 "HgN/A
Weather by CustomWeather, © 2015

See weather overviewHow to use our weather pages